Quillayute, WA

8:31 AM PST on December 11, 2017 (GMT -0800)
Quillayute

Weather History for KUIL - December, 2014

Change the Weather History Date:

Monday, December 22, 2014

  Actual Average Record
Temperature  
Mean Temperature 43 °F 40 °F  
Max Temperature 50 °F 46 °F 56 °F (1986)
Min Temperature 35 °F 34 °F 11 °F (1983)
Degree Days  
Heating Degree Days 22 25  
Month to date heating degree days 410 542  
Since 1 July heating degree days 1644 2256  
Cooling Degree Days 0 0  
Month to date cooling degree days 0 0  
Year to date cooling degree days 25 19  
Moisture  
Dew Point 41 °F    
Average Humidity 90    
Maximum Humidity 100    
Minimum Humidity 80    
Precipitation  
Precipitation T in 0.41 in 2.89 in (1969)
Month to date precipitation 12.07 9.34  
Year to date precipitation 103.01 95.89  
Sea Level Pressure  
Sea Level Pressure 30.30 in    
Wind  
Wind Speed 4 mph (East)    
Max Wind Speed 12 mph    
Max Gust Speed 18 mph    
Visibility 4 miles    
Events Fog    
T = Trace of Precipitation, MM = Missing Value Source: NWS Daily Summary

Daily Weather History Graph

Daily Weather History Graph

Search for Another Location

Airport or City:

Trip Planner

Search our weather history database for the weather conditions in past years. The results will help you decide how hot, cold, wet, or windy it might be!

Date:

Astronomy

Dec. 22, 2014 Rise Set
Actual Time 8:05 AM PST 4:28 PM PST
Civil Twilight 7:29 AM PST 5:04 PM PST
Nautical Twilight 6:49 AM PST 5:44 PM PST
Astronomical Twilight 6:11 AM PST 6:22 PM PST
Moon 8:17 AM PST (12/22) 5:49 PM PST (12/22)
Length of Visible Light 9h 35m
Length of Day
8h 22m
New Moon, 1% of the Moon is Illuminated
Dec 22
New Moon
Dec 28
First Quarter
Jan 4
Full
Jan 13
Last Quarter
Jan 20
New

Hourly Weather History & Observations

Time (PST) Temp. Windchill Dew Point Humidity Pressure Visibility Wind Dir Wind Speed Gust Speed Precip Events Conditions
12:53 AM 48.0 °F - 43.0 °F 83% 30.18 in 7.0 mi NNW 4.6 mph - N/A   Mostly Cloudy
1:53 AM 45.0 °F - 43.0 °F 93% 30.19 in 7.0 mi Calm Calm - N/A   Mostly Cloudy
2:53 AM 39.9 °F - 39.9 °F 100% 30.22 in 2.5 mi Calm Calm - N/A   Scattered Clouds
3:03 AM 39.2 °F - 39.2 °F 100% 30.22 in 1.8 mi Calm Calm - N/A   Scattered Clouds
3:15 AM 39.0 °F - 39.0 °F 100% 30.24 in 1.0 mi Calm Calm - N/A   Mostly Cloudy
3:22 AM 39.0 °F - 39.0 °F 100% 30.24 in 0.8 mi Calm Calm - N/A   Mostly Cloudy
3:29 AM 42.1 °F 40.2 °F 42.1 °F 100% 30.24 in 1.8 mi East 3.5 mph - N/A   Overcast
3:31 AM 42.1 °F 40.2 °F 42.1 °F 100% 30.24 in 3.0 mi East 3.5 mph - N/A   Overcast
3:53 AM 41.0 °F 39.0 °F 41.0 °F 100% 30.25 in 4.0 mi East 3.5 mph - N/A   Mostly Cloudy
4:02 AM 39.9 °F - 39.9 °F 100% 30.24 in 1.5 mi Calm Calm - N/A   Scattered Clouds
4:12 AM 41.0 °F 38.0 °F 41.0 °F 100% 30.24 in 3.0 mi NE 4.6 mph - N/A   Partly Cloudy
4:53 AM 39.9 °F 37.8 °F 39.9 °F 100% 30.26 in 6.0 mi ESE 3.5 mph - N/A   Partly Cloudy
5:50 AM 37.4 °F - 37.4 °F 100% 30.28 in 1.8 mi Calm Calm - N/A   Overcast
5:53 AM 39.0 °F 36.8 °F 37.9 °F 96% 30.29 in 1.5 mi SE 3.5 mph - N/A   Overcast
6:00 AM 39.0 °F 35.7 °F 39.0 °F 100% 30.29 in 0.8 mi SE 4.6 mph - N/A   Mostly Cloudy
6:06 AM 37.0 °F - 37.0 °F 100% 30.29 in 0.2 mi Calm Calm - N/A Fog Fog
6:26 AM 39.9 °F - 39.9 °F 100% 30.30 in 1.0 mi Calm Calm - N/A   Overcast
6:41 AM 35.1 °F - 35.1 °F 100% 30.30 in 0.5 mi Calm Calm - N/A Fog Fog
6:53 AM 37.0 °F - 37.0 °F 100% 30.31 in 0.2 mi Calm Calm - N/A Fog Fog
7:08 AM 36.0 °F - 36.0 °F 100% 30.31 in 1.0 mi Calm Calm - N/A   Mist
7:12 AM 37.0 °F - 37.0 °F 100% 30.31 in 2.5 mi Calm Calm - N/A   Mostly Cloudy
7:15 AM 37.9 °F 34.4 °F 37.9 °F 100% 30.31 in 4.0 mi East 4.6 mph - N/A   Scattered Clouds
7:25 AM 37.0 °F - 37.0 °F 100% 30.32 in 1.8 mi Calm Calm - N/A   Mostly Cloudy
7:29 AM 36.0 °F - 36.0 °F 100% 30.32 in 0.8 mi Calm Calm - N/A   Mostly Cloudy
7:39 AM 36.0 °F 33.3 °F 36.0 °F 100% 30.31 in 1.5 mi East 3.5 mph - N/A   Scattered Clouds
7:46 AM 36.0 °F 32.1 °F 36.0 °F 100% 30.31 in 3.0 mi East 4.6 mph - N/A   Scattered Clouds
7:53 AM 37.9 °F 33.5 °F 37.9 °F 100% 30.32 in 5.0 mi East 5.8 mph - N/A   Scattered Clouds
8:53 AM 39.9 °F 36.7 °F 39.9 °F 100% 30.35 in 6.0 mi East 4.6 mph - N/A   Clear
9:53 AM 41.0 °F 39.0 °F 41.0 °F 100% 30.37 in 6.0 mi ENE 3.5 mph - N/A   Clear
10:53 AM 44.1 °F 41.5 °F 43.0 °F 96% 30.36 in 6.0 mi East 4.6 mph - N/A   Clear
11:53 AM 45.0 °F 43.5 °F 44.1 °F 97% 30.36 in 6.0 mi ENE 3.5 mph - N/A   Clear
12:53 PM 46.9 °F - 45.0 °F 93% 30.35 in 6.0 mi SE 4.6 mph - N/A   Clear
1:53 PM 46.9 °F - 45.0 °F 93% 30.36 in 6.0 mi Calm Calm - N/A   Clear
2:53 PM 48.0 °F - 46.0 °F 93% 30.36 in 6.0 mi East 3.5 mph - N/A   Overcast
3:53 PM 46.9 °F - 46.0 °F 97% 30.34 in 6.0 mi East 4.6 mph - N/A   Mostly Cloudy
4:53 PM 46.0 °F 44.8 °F 45.0 °F 96% 30.35 in 7.0 mi NE 3.5 mph - N/A   Overcast
5:53 PM 45.0 °F 42.6 °F 44.1 °F 97% 30.32 in 8.0 mi East 4.6 mph - N/A   Overcast
6:53 PM 45.0 °F 42.6 °F 44.1 °F 97% 30.32 in 7.0 mi NE 4.6 mph - N/A   Overcast
7:53 PM 45.0 °F - 44.1 °F 97% 30.32 in 8.0 mi Calm Calm - N/A   Overcast
8:53 PM 44.1 °F 40.8 °F 43.0 °F 96% 30.30 in 8.0 mi East 5.8 mph - N/A   Overcast
9:53 PM 44.1 °F 42.5 °F 43.0 °F 96% 30.29 in 8.0 mi East 3.5 mph - N/A   Overcast
10:53 PM 44.1 °F 40.1 °F 42.1 °F 93% 30.27 in 9.0 mi East 6.9 mph - N/A   Overcast
11:53 PM 43.0 °F 39.5 °F 42.1 °F 97% 30.27 in 9.0 mi East 5.8 mph - 0.00 in   Overcast